Owosso, MI

7:29 PM EDT on September 29, 2016 (GMT -0400)
Owosso

Weather History for KRNP - January, 2014

Change the Weather History Date:

Monday, January 27, 2014

  Actual Average (KFNT) Record (KFNT)
Temperature  
Mean Temperature 6 °F 22 °F  
Max Temperature 15 °F 30 °F 56 °F (2002)
Min Temperature -4 °F 15 °F -11 °F (2003)
Degree Days  
Heating Degree Days 60 43  
Month to date heating degree days 1150  
Since 1 July heating degree days 3795  
Cooling Degree Days 0 0  
Month to date cooling degree days 0  
Year to date cooling degree days 0  
Moisture  
Dew Point -5 °F    
Average Humidity 63    
Maximum Humidity 79    
Minimum Humidity 46    
Precipitation  
Precipitation 0.00 in 0.05 in 0.75 in (1967)
Month to date precipitation 1.44  
Year to date precipitation 1.44  
Snow  
Snow 0.00 in 0.40 in 8.20 in (1967)
Month to date snowfall 11.5  
Since 1 July snowfall 26.2  
Snow Depth -    
Sea Level Pressure  
Sea Level Pressure 29.94 in    
Wind  
Wind Speed 16 mph (West)    
Max Wind Speed 23 mph    
Max Gust Speed 31 mph    
Visibility 8 miles    
Events Snow    
T = Trace of Precipitation, MM = Missing Value Source: NWS Daily Summary

Daily Weather History Graph

Daily Weather History Graph

Search for Another Location

Airport or City:

Trip Planner

Search our weather history database for the weather conditions in past years. The results will help you decide how hot, cold, wet, or windy it might be!

Date:

Astronomy

Jan. 27, 2014 Rise Set
Actual Time 7:56 AM EST 5:42 PM EST
Civil Twilight 7:26 AM EST 6:13 PM EST
Nautical Twilight 6:51 AM EST 6:47 PM EST
Astronomical Twilight 6:18 AM EST 7:20 PM EST
Moon 4:37 AM EST (1/27) 2:26 PM EST (1/27)
Length of Visible Light 10h 47m
Length of Day
9h 46m
Waning Crescent, 15% of the Moon is Illuminated
Jan 27
Waning Crescent
Jan 30
New
Feb 6
First Quarter
Feb 14
Full
Feb 22
Last Quarter

Hourly Weather History & Observations

Time (EST) Temp. Windchill Dew Point Humidity Pressure Visibility Wind Dir Wind Speed Gust Speed Precip Events Conditions
12:15 AM 15.6 °F -0.9 °F 10.2 °F 79% 29.44 in 1.8 mi WNW 18.4 mph 25.3 mph N/A Snow Light Snow
12:35 AM 14.7 °F -3.4 °F 9.1 °F 79% 29.44 in 1.0 mi West 21.9 mph 29.9 mph N/A Snow Light Snow
12:55 AM 14.9 °F -1.3 °F 7.7 °F 73% 29.46 in 2.5 mi West 17.3 mph 25.3 mph N/A Snow Light Snow
1:15 AM 14.0 °F -2.5 °F 6.8 °F 73% 29.47 in 5.0 mi West 17.3 mph 24.2 mph N/A   Haze
1:35 AM 14.2 °F -2.3 °F 5.7 °F 69% 29.49 in 3.0 mi West 17.3 mph 26.5 mph N/A Snow Light Snow
1:55 AM 13.3 °F -3.9 °F 4.1 °F 67% 29.51 in 7.0 mi West 18.4 mph 21.9 mph N/A   Overcast
2:15 AM 12.9 °F -6.1 °F 3.6 °F 66% 29.53 in 4.0 mi West 23.0 mph 28.8 mph N/A   Haze
2:34 AM 11.7 °F -6.0 °F 2.5 °F 67% 29.55 in 4.0 mi West 18.4 mph 26.5 mph N/A   Haze
2:55 AM 10.9 °F -5.9 °F 1.4 °F 65% 29.57 in 5.0 mi West 16.1 mph 26.5 mph N/A   Haze
3:15 AM 10.4 °F -5.4 °F 0.9 °F 65% 29.59 in 10.0 mi West 13.8 mph - N/A   Clear
3:34 AM 9.5 °F -6.6 °F 1.4 °F 70% 29.61 in 10.0 mi West 13.8 mph 20.7 mph N/A   Scattered Clouds
3:55 AM 9.5 °F -7.2 °F 1.4 °F 70% 29.63 in 7.0 mi West 15.0 mph 21.9 mph N/A   Clear
4:15 AM 9.0 °F -6.6 °F 1.0 °F 70% 29.65 in 10.0 mi West 12.7 mph - N/A   Clear
4:34 AM 8.8 °F -7.5 °F 1.2 °F 71% 29.68 in 10.0 mi West 13.8 mph 20.7 mph N/A   Clear
4:55 AM 8.4 °F -7.9 °F 0.9 °F 71% 29.70 in 10.0 mi West 13.8 mph - N/A   Clear
5:15 AM 8.4 °F -9.7 °F 1.4 °F 73% 29.73 in 10.0 mi West 17.3 mph 21.9 mph N/A   Clear
5:35 AM 8.4 °F -12.1 °F -1.1 °F 65% 29.75 in 3.0 mi WNW 23.0 mph 31.1 mph N/A   Haze
5:55 AM 7.5 °F -12.9 °F -2.6 °F 63% 29.78 in 2.5 mi WNW 21.9 mph 31.1 mph N/A Snow Light Snow
6:14 AM 6.8 °F -13.4 °F -3.3 °F 63% 29.80 in 5.0 mi West 20.7 mph 27.6 mph N/A   Haze
6:35 AM 6.4 °F -11.7 °F -4.7 °F 60% 29.82 in 7.0 mi WNW 16.1 mph 27.6 mph N/A   Clear
6:55 AM 5.5 °F -12.9 °F -5.4 °F 61% 29.84 in 10.0 mi West 16.1 mph 23.0 mph N/A   Clear
7:15 AM 5.4 °F -11.1 °F -4.9 °F 63% 29.86 in 10.0 mi West 12.7 mph 20.7 mph N/A   Clear
7:35 AM 5.0 °F -13.6 °F -4.0 °F 66% 29.87 in 10.0 mi West 16.1 mph 19.6 mph N/A   Clear
7:55 AM 4.8 °F -12.5 °F -4.9 °F 64% 29.89 in 10.0 mi West 13.8 mph - N/A   Clear
8:15 AM 4.5 °F -13.0 °F -5.8 °F 63% 29.91 in 10.0 mi West 13.8 mph - N/A   Clear
8:35 AM 4.8 °F -12.5 °F -6.2 °F 61% 29.92 in 10.0 mi West 13.8 mph 18.4 mph N/A   Clear
8:54 AM 5.0 °F -11.6 °F -6.3 °F 60% 29.93 in 10.0 mi West 12.7 mph 18.4 mph N/A   Clear
9:15 AM 5.4 °F -11.8 °F -6.3 °F 59% 29.95 in 10.0 mi West 13.8 mph 19.6 mph N/A   Clear
9:34 AM 5.9 °F -8.0 °F -5.8 °F 59% 29.97 in 10.0 mi West 9.2 mph 16.1 mph N/A   Clear
9:55 AM 6.1 °F -10.2 °F -4.9 °F 61% 29.98 in 10.0 mi West 12.7 mph - N/A   Clear
10:15 AM 5.9 °F -10.5 °F -4.9 °F 61% 29.99 in 10.0 mi West 12.7 mph 20.7 mph N/A   Scattered Clouds
10:34 AM 6.1 °F -12.8 °F -6.0 °F 58% 29.99 in 10.0 mi West 17.3 mph - N/A   Clear
10:55 AM 6.4 °F -12.3 °F -7.2 °F 54% 30.00 in 10.0 mi WNW 17.3 mph 20.7 mph N/A   Clear
11:15 AM 6.4 °F -11.7 °F -8.5 °F 50% 30.01 in 10.0 mi West 16.1 mph 21.9 mph N/A   Clear
11:35 AM 6.6 °F -12.1 °F -8.1 °F 51% 30.02 in 10.0 mi WNW 17.3 mph 21.9 mph N/A   Scattered Clouds
11:55 AM 7.0 °F -11.0 °F -7.4 °F 52% 30.02 in 10.0 mi WSW 16.1 mph 23.0 mph N/A   Mostly Cloudy
12:15 PM 6.6 °F -11.5 °F -7.1 °F 54% 30.02 in 7.0 mi West 16.1 mph - N/A   Scattered Clouds
12:35 PM 6.1 °F -7.8 °F -7.4 °F 54% 30.02 in 10.0 mi West 9.2 mph 18.4 mph N/A   Clear
12:55 PM 6.1 °F -10.9 °F -7.4 °F 54% 30.02 in 10.0 mi West 13.8 mph - N/A   Scattered Clouds
1:14 PM 6.4 °F -10.5 °F -6.2 °F 56% 30.01 in 10.0 mi West 13.8 mph - N/A   Mostly Cloudy
1:35 PM 7.2 °F -9.6 °F -3.3 °F 62% 30.01 in 10.0 mi West 13.8 mph - N/A   Scattered Clouds
1:55 PM 6.4 °F -12.3 °F -2.0 °F 68% 30.02 in 1.0 mi WNW 17.3 mph 23.0 mph N/A Snow Light Snow
2:14 PM 6.4 °F -10.5 °F -1.1 °F 71% 30.02 in 0.8 mi WSW 13.8 mph 19.6 mph N/A   Haze
2:35 PM 7.3 °F -11.1 °F -5.6 °F 56% 30.02 in 5.0 mi West 17.3 mph 21.9 mph N/A   Haze
2:55 PM 7.2 °F -11.9 °F -8.5 °F 49% 30.03 in 3.0 mi West 18.4 mph 24.2 mph N/A   Haze
3:14 PM 6.8 °F -12.4 °F -8.7 °F 49% 30.04 in 5.0 mi West 18.4 mph 26.5 mph N/A   Haze
3:35 PM 6.6 °F -13.1 °F -10.5 °F 46% 30.05 in 10.0 mi West 19.6 mph 26.5 mph N/A   Scattered Clouds
3:55 PM 6.6 °F -10.9 °F -4.5 °F 60% 30.06 in 7.0 mi WNW 15.0 mph 23.0 mph N/A   Mostly Cloudy
4:15 PM 5.9 °F -12.4 °F -8.5 °F 52% 30.07 in 10.0 mi WNW 16.1 mph - N/A   Overcast
4:35 PM 6.1 °F -13.3 °F -9.6 °F 49% 30.09 in 10.0 mi West 18.4 mph 24.2 mph N/A   Mostly Cloudy
4:55 PM 4.5 °F -12.3 °F -10.3 °F 51% 30.09 in 10.0 mi West 12.7 mph - N/A   Scattered Clouds
5:15 PM 3.4 °F -12.9 °F -9.4 °F 55% 30.10 in 10.0 mi West 11.5 mph - N/A   Scattered Clouds
5:35 PM 2.3 °F -15.7 °F -9.4 °F 58% 30.11 in 10.0 mi West 13.8 mph - N/A   Scattered Clouds
5:55 PM 1.4 °F -16.9 °F -8.5 °F 63% 30.12 in 10.0 mi WSW 13.8 mph 19.6 mph N/A   Clear
6:15 PM 1.2 °F -16.4 °F -10.5 °F 58% 30.13 in 10.0 mi West 12.7 mph - N/A   Clear
6:35 PM 0.3 °F -15.8 °F -10.5 °F 60% 30.14 in 10.0 mi West 10.4 mph - N/A   Clear
6:54 PM -0.0 °F -16.3 °F -10.3 °F 62% 30.16 in 10.0 mi West 10.4 mph - N/A   Clear
7:15 PM -0.4 °F -17.6 °F -10.5 °F 62% 30.17 in 10.0 mi West 11.5 mph - N/A   Clear
7:35 PM -1.3 °F -17.8 °F -10.3 °F 66% 30.18 in 10.0 mi West 10.4 mph - N/A   Clear
7:55 PM -1.7 °F -18.3 °F -10.7 °F 66% 30.19 in 10.0 mi West 10.4 mph - N/A   Clear
8:15 PM -2.2 °F -19.9 °F -11.9 °F 63% 30.20 in 10.0 mi West 11.5 mph - N/A   Clear
8:35 PM -2.4 °F -19.2 °F -12.3 °F 63% 30.21 in 10.0 mi West 10.4 mph - N/A   Clear
8:55 PM -2.6 °F -19.4 °F -12.3 °F 63% 30.21 in 10.0 mi West 10.4 mph - N/A   Clear
9:14 PM -3.1 °F -17.9 °F -12.5 °F 64% 30.22 in 10.0 mi WSW 8.1 mph - N/A   Clear
9:35 PM -3.5 °F -17.1 °F -12.1 °F 67% 30.22 in 10.0 mi WSW 6.9 mph - N/A   Clear
9:55 PM -4.0 °F -17.8 °F -12.1 °F 68% 30.23 in 10.0 mi WSW 6.9 mph - N/A   Clear
10:14 PM -4.4 °F -18.2 °F -12.3 °F 69% 30.23 in 10.0 mi WSW 6.9 mph - N/A   Clear
10:35 PM -4.2 °F -20.4 °F -11.4 °F 71% 30.24 in 10.0 mi West 9.2 mph - N/A   Clear
10:55 PM -4.0 °F -21.2 °F -10.7 °F 73% 30.24 in 10.0 mi WSW 10.4 mph - N/A   Clear
11:15 PM -4.0 °F -20.2 °F -10.3 °F 74% 30.24 in 10.0 mi WSW 9.2 mph - N/A   Clear
11:35 PM -4.4 °F -15.0 °F -10.3 °F 76% 30.25 in 10.0 mi WSW 4.6 mph - N/A   Clear
11:55 PM -4.9 °F -15.6 °F -10.3 °F 78% 30.25 in 10.0 mi SW 4.6 mph - N/A   Clear